Regional Weather Roundup
Issued by NWS Kansas City/Pleasant Hill, MO

Home | Current Version | Previous Version | Text Only | Print | Product List | Glossary On
Versions: 1 2 3 4 5 6 7 8 9 10 11 12 13 14 15 16 17 18 19 20 21 22 23 24 25 26 27 28 29 30 31 32 33 34 35 36 37 38 39 40 41 42 43 44 45 46 47 48 49 50
000
ASUS43 KEAX 060411
RWREAX

WEATHER ROUNDUP FOR EASTERN KANSAS AND NORTHWEST MISSOURI
NATIONAL WEATHER SERVICE KANSAS CITY/PLEASANT HILL MO
1000 PM CST THU MAR 05 2015

KSZ040-057-103>105-MOZ028-029-037-043-060500-
...KANSAS CITY METROPOLITAN AREA...

CITY           SKY/WX    TMP DP  RH WIND       PRES   REMARKS
K.C. INTL      CLEAR     20   9  62 S9        30.46F WCI   9
K.C. DOWNTOWN  CLEAR     26  13  57 S8        30.49S WCI  18
LEES SUMMIT    CLEAR     25  12  58 S8        30.49R WCI  16
OLATHE - IXD   CLEAR     24  13  62 SE10      30.48S WCI  14
OLATHE - OJC   FAIR      24  14  65 S9        30.47S WCI  14
LAWRENCE       PTCLDY    23  14  68 SE9       30.47F WCI  13

$$

MOZ001>008-011>017-020>025-030>033-038>040-044>046-053-054-060500-
...NORTHERN AND CENTRAL MISSOURI...

CITY           SKY/WX    TMP DP  RH WIND       PRES   REMARKS
ST. JOSEPH     CLEAR     22   7  52 S7        30.47S WCI  13
MOSBY            N/A     27  10  50 SE5       30.50R WCI  21
WARRENSBURG    CLEAR     21  12  68 SE5       30.52S WCI  15
WHITEMAN AFB   CLEAR     22  11  63 SE6       30.51S WCI  14
CLINTON        CLEAR     25  14  63 SE5       30.53S WCI  19
SEDALIA        CLEAR     21  11  65 SE6       30.53S WCI  13
WARSAW         NOT AVBL
MARSHALL       CLEAR     25  10  54 SE6       30.54S WCI  18
CHILLICOTHE      N/A     21   9  59 SE5       30.52F WCI  15
MOBERLY        CLEAR     19  10  68 SE5       30.54S WCI  13
KIRKSVILLE     CLEAR     15  10  80 SE7       30.52S WCI   5

$$

MOZ041-047>049-056>058-063>065-088>090-097-060500-
...EASTERN AND SOUTHERN MISSOURI...

CITY           SKY/WX    TMP DP  RH WIND       PRES   REMARKS
ST. LOUIS INTL CLEAR     16   4  59 E5        30.60R WCI   9
SPIRIT OF STL  CLEAR     17   7  64 E5        30.59R WCI  10
COLUMBIA       CLEAR     19  10  68 E6        30.54S WCI  11
JEFFERSON CITY CLEAR     20   9  62 E3        30.57S
MEXICO         FAIR      16  12  86 SE5       30.55S WCI   9
HANNIBAL       PTCLDY    14   0  52 SE5       30.55F WCI   6
ROLLA          CLEAR     18  10  71 CALM      30.52R
LEBANON        CLEAR     21  14  73 CALM      30.52S
OSAGE BEACH    FAIR      18  10  73 CALM      30.54S
SPRINGFIELD    CLEAR     20  13  74 SE6       30.51S WCI  12
BRANSON        CLEAR     18  14  86 CALM      30.54R
NEVADA         CLEAR     23  12  63 SE6       30.53S WCI  16
JOPLIN         CLEAR     27  14  58 SE7       30.51S WCI  19
WEST PLAINS    CLEAR     16   7  67 CALM      30.54R

$$

IAZ060-094-KSZ022-034>040-054-083-096-NEZ052-066-093-060500-
...KANSAS...SOUTHEAST NEBRASKA AND IOWA...

CITY           SKY/WX    TMP DP  RH WIND       PRES   REMARKS
TOPEKA         PTCLDY    28  13  53 SE9       30.45F WCI  19
MANHATTAN      CLEAR     29  16  58 VRB5      30.40S WCI  24
EMPORIA        CLEAR     26  18  71 S9        30.44S WCI  17
CHANUTE        CLEAR     26  18  71 SE7       30.50R WCI  18
WICHITA        PTCLDY    32  20  61 S13       30.44R WCI  22
OMAHA          CLEAR     25   7  46 S12       30.37F WCI  14
LINCOLN        MOCLDY    27  10  49 S13       30.34F WCI  16
FALLS CITY     CLEAR     20   7  57 SE9       30.41F WCI   9
LAMONI         CLEAR     19   5  54 S7        30.44F WCI  10
DES MOINES     PTCLDY    16   4  59 SE9       30.45F WCI   4

$$



USA.gov is the U.S. government's official web portal to all federal, state and local government web resources and services.